Friday Harbor, WA

8:42 AM PST on December 13, 2019 (GMT -0800)
Friday Harbor

Weather History for KFHR - November, 2019

Change the Weather History Date:

Tuesday, November 19, 2019

  Actual Average Record
Temperature  
Mean Temperature 48 °F -  
Max Temperature 51 °F 46 °F 57 °F (2008)
Min Temperature 45 °F 38 °F 26 °F (2011)
Degree Days  
Heating Degree Days 17    
Moisture  
Dew Point 44 °F    
Average Humidity 86    
Maximum Humidity 96    
Minimum Humidity 71    
Precipitation  
Precipitation 0.00 in - - ()
Sea Level Pressure  
Sea Level Pressure 29.85 in    
Wind  
Wind Speed 6 mph (North)    
Max Wind Speed 13 mph    
Max Gust Speed 20 mph    
Visibility 10 miles    
Events Rain    
Averages and records for this station are not official NWS values.
T = Trace of Precipitation, MM = Missing Value Source: NWS Daily Summary

Daily Weather History Graph

Daily Weather History Graph

Search for Another Location

Airport or City:

Astronomy

Nov. 19, 2019 Rise Set
Actual Time 7:25 AM PST 4:28 PM PST
Civil Twilight 6:51 AM PST 5:03 PM PST
Nautical Twilight 6:12 AM PST 5:41 PM PST
Astronomical Twilight 5:35 AM PST 6:18 PM PST
Moon 11:37 PM PST (11/19) 1:36 PM PST (11/19)
Length of Visible Light 10h 11m
Length of Day
9h 02m
Waning Gibbous, 50% of the Moon is Illuminated
Nov 19
Waning Gibbous
Nov 19
Last Quarter
Nov 26
New
Dec 3
First Quarter
Dec 11
Full

Hourly Weather History & Observations

Time (PST) Temp. Windchill Dew Point Humidity Pressure Visibility Wind Dir Wind Speed Gust Speed Precip Events Conditions
12:28 AM 48.0 °F - 46.9 °F 96% 29.69 in 8.0 mi North 8.1 mph - 0.00 in   Overcast
12:53 AM 48.0 °F - 46.9 °F 96% 29.69 in 10.0 mi North 8.1 mph - 0.00 in   Overcast
1:39 AM 48.0 °F - 46.9 °F 96% 29.70 in 9.0 mi NNW 9.2 mph - 0.00 in Rain Light Rain
1:53 AM 48.0 °F - 46.9 °F 96% 29.70 in 10.0 mi North 5.8 mph - 0.00 in   Overcast
2:30 AM 48.0 °F - 46.0 °F 93% 29.71 in 10.0 mi North 5.8 mph - N/A   Overcast
2:42 AM 48.0 °F - 46.0 °F 93% 29.71 in 10.0 mi Variable 5.8 mph - 0.00 in Rain Light Rain
2:53 AM 48.0 °F - 46.9 °F 96% 29.72 in 10.0 mi Calm Calm - 0.00 in Rain Light Rain
3:09 AM 48.0 °F - 46.0 °F 93% 29.72 in 10.0 mi Variable 3.5 mph - 0.00 in Rain Light Rain
3:53 AM 46.9 °F - 45.0 °F 93% 29.73 in 10.0 mi Variable 3.5 mph - 0.00 in   Overcast
4:53 AM 46.9 °F - 45.0 °F 93% 29.74 in 10.0 mi Calm Calm - N/A   Overcast
5:53 AM 46.9 °F - 44.1 °F 90% 29.75 in 10.0 mi NNW 4.6 mph - N/A   Overcast
6:08 AM 46.9 °F - 44.1 °F 90% 29.75 in 10.0 mi Variable 4.6 mph - N/A   Overcast
6:37 AM 46.9 °F - 44.1 °F 90% 29.76 in 10.0 mi Calm Calm - N/A   Overcast
6:53 AM 46.9 °F - 44.1 °F 90% 29.76 in 10.0 mi Calm Calm - N/A   Overcast
7:22 AM 46.0 °F - 44.1 °F 93% 29.77 in 10.0 mi Calm Calm - N/A   Overcast
7:53 AM 46.0 °F 43.9 °F 43.0 °F 89% 29.78 in 10.0 mi Variable 4.6 mph - N/A   Overcast
8:53 AM 46.9 °F - 43.0 °F 86% 29.81 in 10.0 mi Calm Calm - N/A   Overcast
9:53 AM 48.0 °F - 42.1 °F 80% 29.84 in 10.0 mi North 10.4 mph 18.4 mph N/A   Overcast
11:53 AM 48.9 °F - 42.1 °F 77% 29.88 in 10.0 mi North 8.1 mph 17.3 mph N/A   Overcast
12:53 PM 50.0 °F - 43.0 °F 77% 29.89 in 10.0 mi North 9.2 mph 17.3 mph N/A   Partly Cloudy
1:53 PM 51.1 °F - 42.1 °F 71% 29.93 in 10.0 mi North 10.4 mph 17.3 mph N/A   Clear
2:53 PM 51.1 °F - 42.1 °F 71% 29.94 in 10.0 mi NNW 5.8 mph - N/A   Clear
3:53 PM 48.9 °F - 42.1 °F 77% 29.97 in 10.0 mi Variable 3.5 mph - N/A   Clear
4:53 PM 48.0 °F - 41.0 °F 77% 30.00 in 10.0 mi Variable 5.8 mph - N/A   Clear
5:53 PM 46.9 °F - 39.9 °F 77% 30.03 in 10.0 mi Variable 5.8 mph - N/A   Clear
6:53 PM 45.0 °F 43.5 °F 39.0 °F 80% 30.05 in 10.0 mi Variable 3.5 mph - N/A   Clear
7:53 PM 48.0 °F - 41.0 °F 77% 30.07 in 10.0 mi NNW 5.8 mph - N/A   Clear
8:53 PM 46.9 °F - 39.9 °F 77% 30.11 in 10.0 mi Variable 6.9 mph - N/A   Clear
10:53 PM 46.9 °F - 39.9 °F 77% 30.14 in 10.0 mi Variable 6.9 mph - N/A   Clear
11:53 PM 46.9 °F - 42.1 °F 83% 30.16 in 10.0 mi North 12.7 mph 19.6 mph N/A   Clear